AUA805 LOWW-LGAV

Flight info

Callsign AUA805
Flight time 1h 49m
Altitude 35000
Route ARSIN DCT NALOX DCT BABIT DCT NEVAK DCT RAXAD DCT MAKED UL617 SKP UM749 ROPOX
Aircraft A321/M-SDE3FGHIRWY/LB1

Departure

Time 2026-04-25 17:43
Airport Vienna International Airport (LOWW)

Arrival

Time 2026-04-25 19:33
Airport Athens Eleftherios Venizelos International Airport (LGAV)
Time Latitude Longitude Altitude Speed Heading
2026-04-25 17:08 48.11742 16.56680 610 ft 0 kts 25°
2026-04-25 17:33 48.11740 16.56678 609 ft 3 kts 25°
2026-04-25 17:33 48.11716 16.56663 620 ft 4 kts 16°
2026-04-25 17:33 48.11689 16.56655 616 ft 4 kts 359°
2026-04-25 17:34 48.11665 16.56663 621 ft 4 kts 317°
2026-04-25 17:34 48.11658 16.56678 623 ft 1 kts 295°
2026-04-25 17:34 48.11657 16.56679 623 ft 0 kts 295°
2026-04-25 17:38 48.11659 16.56674 623 ft 3 kts 295°
2026-04-25 17:38 48.11702 16.56540 611 ft 16 kts 296°
2026-04-25 17:38 48.11747 16.56399 621 ft 14 kts 294°
2026-04-25 17:39 48.11717 16.56287 619 ft 13 kts 208°
2026-04-25 17:39 48.11643 16.56225 611 ft 12 kts 216°
2026-04-25 17:39 48.11572 16.56198 611 ft 10 kts 154°
2026-04-25 17:39 48.11535 16.56275 612 ft 9 kts 115°
2026-04-25 17:40 48.11509 16.56358 616 ft 9 kts 115°
2026-04-25 17:40 48.11478 16.56453 613 ft 14 kts 116°
2026-04-25 17:40 48.11424 16.56615 615 ft 20 kts 117°
2026-04-25 17:40 48.11366 16.56795 619 ft 19 kts 116°
2026-04-25 17:41 48.11312 16.56963 616 ft 17 kts 116°
2026-04-25 17:41 48.11262 16.57118 615 ft 16 kts 116°
2026-04-25 17:41 48.11217 16.57255 611 ft 14 kts 116°
2026-04-25 17:41 48.11163 16.57421 618 ft 21 kts 116°
2026-04-25 17:42 48.11102 16.57605 611 ft 16 kts 123°
2026-04-25 17:42 48.11009 16.57623 608 ft 16 kts 203°
2026-04-25 17:42 48.10932 16.57492 608 ft 22 kts 277°
2026-04-25 17:42 48.11078 16.57012 613 ft 87 kts 296°
2026-04-25 17:43 48.11428 16.55946 610 ft 139 kts 295°
2026-04-25 17:43 48.11902 16.54474 743 ft 167 kts 295°
2026-04-25 17:43 48.12384 16.52861 1218 ft 173 kts 278°
2026-04-25 17:43 48.12036 16.51155 1769 ft 183 kts 234°
2026-04-25 17:44 48.10998 16.49867 2045 ft 206 kts 220°
2026-04-25 17:44 48.09724 16.48636 2166 ft 230 kts 217°
2026-04-25 17:44 48.08296 16.47393 2527 ft 246 kts 206°
2026-04-25 17:44 48.06515 16.47176 3004 ft 271 kts 173°
2026-04-25 17:45 48.04635 16.47651 3738 ft 276 kts 173°
2026-04-25 17:45 48.03991 16.47803 3993 ft 278 kts 173°
2026-04-25 17:45 48.00780 16.48486 5262 ft 283 kts 174°
2026-04-25 17:45 47.98822 16.48860 6071 ft 284 kts 175°
2026-04-25 17:46 47.96873 16.49424 6798 ft 290 kts 160°
2026-04-25 17:46 47.95012 16.50621 7522 ft 292 kts 158°
2026-04-25 17:46 47.93147 16.51860 8281 ft 295 kts 158°
2026-04-25 17:46 47.91259 16.53113 9011 ft 299 kts 159°
2026-04-25 17:47 47.89347 16.54370 9715 ft 302 kts 159°
2026-04-25 17:47 47.87405 16.55640 10232 ft 313 kts 159°
2026-04-25 17:47 47.85339 16.56976 10362 ft 334 kts 159°
2026-04-25 17:47 47.83139 16.58390 10487 ft 355 kts 159°
2026-04-25 17:48 47.78375 16.61454 10883 ft 386 kts 159°
2026-04-25 17:48 47.75891 16.63058 11393 ft 392 kts 159°
2026-04-25 17:48 47.73378 16.64682 11925 ft 396 kts 159°
2026-04-25 17:49 47.70843 16.66316 12472 ft 399 kts 159°
2026-04-25 17:49 47.68281 16.67962 12994 ft 403 kts 159°
2026-04-25 17:49 47.65697 16.69620 13507 ft 407 kts 159°
2026-04-25 17:49 47.63084 16.71293 13985 ft 411 kts 159°
2026-04-25 17:50 47.61343 16.72408 14283 ft 413 kts 159°
2026-04-25 17:50 47.57769 16.74547 14850 ft 415 kts 166°
2026-04-25 17:50 47.54963 16.75483 15284 ft 413 kts 175°
2026-04-25 17:50 47.52094 16.75818 15677 ft 414 kts 180°
2026-04-25 17:51 47.49211 16.76080 16078 ft 417 kts 180°
2026-04-25 17:51 47.46308 16.76350 16478 ft 419 kts 180°
2026-04-25 17:51 47.43390 16.76625 16882 ft 421 kts 180°
2026-04-25 17:51 47.40454 16.76904 17254 ft 424 kts 179°
2026-04-25 17:52 47.37508 16.77189 17701 ft 425 kts 179°
2026-04-25 17:52 47.36511 16.77286 17849 ft 425 kts 179°
2026-04-25 17:52 47.31585 16.77764 18514 ft 428 kts 179°
2026-04-25 17:52 47.28609 16.78055 18899 ft 430 kts 179°
2026-04-25 17:53 47.25627 16.78347 19365 ft 429 kts 179°
2026-04-25 17:53 47.22645 16.78631 19770 ft 430 kts 180°
2026-04-25 17:53 47.19645 16.78915 20153 ft 432 kts 180°
2026-04-25 17:53 47.16638 16.79199 20510 ft 435 kts 180°
2026-04-25 17:54 47.13610 16.79486 20882 ft 437 kts 180°
2026-04-25 17:54 47.10566 16.79775 21251 ft 439 kts 180°
2026-04-25 17:54 47.07508 16.80066 21624 ft 441 kts 180°
2026-04-25 17:54 47.04436 16.80357 21990 ft 443 kts 180°
2026-04-25 17:55 47.01348 16.80647 22361 ft 445 kts 180°
2026-04-25 17:55 46.98250 16.80937 22721 ft 448 kts 180°
2026-04-25 17:55 46.95137 16.81238 23077 ft 450 kts 178°
2026-04-25 17:55 46.92031 16.82062 23428 ft 457 kts 167°
2026-04-25 17:56 46.89046 16.83752 23736 ft 465 kts 156°
2026-04-25 17:56 46.86295 16.86292 24017 ft 472 kts 144°
2026-04-25 17:56 46.83909 16.89619 24294 ft 478 kts 132°
2026-04-25 17:56 46.81979 16.93603 24563 ft 483 kts 123°
2026-04-25 17:57 46.80202 16.97787 24831 ft 486 kts 124°
2026-04-25 17:57 46.78409 17.01974 25110 ft 488 kts 124°
2026-04-25 17:57 46.76599 17.06166 25364 ft 490 kts 124°
2026-04-25 17:57 46.76008 17.07529 25447 ft 490 kts 124°
2026-04-25 17:58 46.72941 17.14592 25842 ft 493 kts 124°
2026-04-25 17:58 46.71103 17.18823 26068 ft 495 kts 124°
2026-04-25 17:58 46.69258 17.23071 26266 ft 497 kts 124°
2026-04-25 17:58 46.67405 17.27334 26454 ft 499 kts 124°
2026-04-25 17:59 46.65544 17.31604 26662 ft 500 kts 124°
2026-04-25 17:59 46.63679 17.35880 26861 ft 501 kts 124°
2026-04-25 17:59 46.61807 17.40158 27097 ft 501 kts 124°
2026-04-25 17:59 46.59935 17.44431 27354 ft 501 kts 124°
2026-04-25 18:00 46.58696 17.47259 27517 ft 501 kts 124°
2026-04-25 18:00 46.56193 17.52966 27850 ft 500 kts 124°
2026-04-25 18:00 46.54328 17.57211 28104 ft 500 kts 124°
2026-04-25 18:00 46.52451 17.61483 28359 ft 500 kts 124°
2026-04-25 18:01 46.50578 17.65741 28594 ft 500 kts 124°
2026-04-25 18:01 46.48703 17.69989 28833 ft 500 kts 125°
2026-04-25 18:01 46.46821 17.74242 29097 ft 500 kts 125°
2026-04-25 18:01 46.44942 17.78479 29342 ft 500 kts 125°
2026-04-25 18:02 46.43060 17.82714 29586 ft 500 kts 125°
2026-04-25 18:02 46.41201 17.86894 29827 ft 500 kts 125°
2026-04-25 18:02 46.39294 17.91180 30061 ft 500 kts 125°
2026-04-25 18:02 46.37438 17.95350 30245 ft 499 kts 125°
2026-04-25 18:03 46.35558 17.99568 30490 ft 498 kts 125°
2026-04-25 18:03 46.33680 18.03774 30712 ft 497 kts 125°
2026-04-25 18:03 46.31800 18.07975 30928 ft 497 kts 125°
2026-04-25 18:03 46.29921 18.12168 31145 ft 497 kts 125°
2026-04-25 18:04 46.28038 18.16364 31364 ft 497 kts 125°
2026-04-25 18:04 46.26767 18.19191 31506 ft 497 kts 125°
2026-04-25 18:04 46.24270 18.24733 31783 ft 497 kts 125°
2026-04-25 18:04 46.22995 18.27556 31937 ft 497 kts 125°
2026-04-25 18:05 46.21102 18.31741 32137 ft 497 kts 125°
2026-04-25 18:05 46.19212 18.35919 32358 ft 497 kts 125°
2026-04-25 18:05 46.17321 18.40097 32582 ft 497 kts 125°
2026-04-25 18:05 46.15429 18.44270 32792 ft 497 kts 125°
2026-04-25 18:06 46.13536 18.48441 33015 ft 497 kts 125°
2026-04-25 18:06 46.11639 18.52612 33235 ft 497 kts 125°
2026-04-25 18:06 46.09741 18.56776 33451 ft 497 kts 125°
2026-04-25 18:06 46.07839 18.60942 33641 ft 498 kts 125°
2026-04-25 18:07 46.05934 18.65109 33863 ft 498 kts 125°
2026-04-25 18:07 46.04030 18.69267 34049 ft 498 kts 125°
2026-04-25 18:07 46.02130 18.73414 34263 ft 496 kts 125°
2026-04-25 18:07 46.00229 18.77557 34471 ft 496 kts 125°
2026-04-25 18:08 45.98326 18.81697 34658 ft 495 kts 125°
2026-04-25 18:08 45.96454 18.85765 34848 ft 495 kts 125°
2026-04-25 18:08 45.94509 18.89848 34958 ft 494 kts 130°
2026-04-25 18:09 45.89591 18.96555 34983 ft 485 kts 149°
2026-04-25 18:09 45.84033 19.02046 34983 ft 485 kts 148°
2026-04-25 18:10 45.78511 19.07616 34986 ft 485 kts 148°
2026-04-25 18:10 45.72995 19.13184 34987 ft 485 kts 148°
2026-04-25 18:11 45.67466 19.18719 34989 ft 485 kts 148°
2026-04-25 18:11 45.61937 19.24235 34990 ft 485 kts 148°
2026-04-25 18:12 45.56402 19.29750 34993 ft 485 kts 148°
2026-04-25 18:12 45.50860 19.35242 34983 ft 485 kts 148°
2026-04-25 18:13 45.45319 19.40726 34995 ft 485 kts 148°
2026-04-25 18:13 45.39780 19.46202 35001 ft 485 kts 148°
2026-04-25 18:14 45.31461 19.54379 35011 ft 485 kts 148°
2026-04-25 18:14 45.25918 19.59839 34999 ft 485 kts 148°
2026-04-25 18:15 45.20378 19.65273 35012 ft 484 kts 148°
2026-04-25 18:15 45.14825 19.70691 35011 ft 485 kts 148°
2026-04-25 18:16 45.09274 19.76110 35015 ft 485 kts 148°
2026-04-25 18:17 45.00932 19.84208 35024 ft 485 kts 148°
2026-04-25 18:17 44.95368 19.89595 35018 ft 485 kts 148°
2026-04-25 18:18 44.89801 19.94976 35024 ft 485 kts 148°
2026-04-25 18:18 44.84228 20.00358 35022 ft 485 kts 148°
2026-04-25 18:19 44.78655 20.05725 35025 ft 485 kts 148°
2026-04-25 18:19 44.73074 20.11076 35021 ft 485 kts 148°
2026-04-25 18:20 44.67499 20.16420 35025 ft 485 kts 148°
2026-04-25 18:20 44.61927 20.21755 35025 ft 485 kts 148°
2026-04-25 18:21 44.56349 20.27074 35025 ft 484 kts 148°
2026-04-25 18:21 44.50770 20.32367 35019 ft 484 kts 148°
2026-04-25 18:22 44.45191 20.37644 35028 ft 484 kts 148°
2026-04-25 18:22 44.39614 20.42924 35029 ft 484 kts 148°
2026-04-25 18:23 44.34044 20.48195 35028 ft 483 kts 148°
2026-04-25 18:23 44.28469 20.53439 35018 ft 483 kts 148°
2026-04-25 18:24 44.22899 20.58670 35024 ft 483 kts 148°
2026-04-25 18:24 44.17308 20.63845 35023 ft 482 kts 149°
2026-04-25 18:25 44.11658 20.68864 35028 ft 482 kts 149°
2026-04-25 18:25 44.06032 20.73806 35026 ft 481 kts 149°
2026-04-25 18:26 44.00387 20.78804 35019 ft 481 kts 148°
2026-04-25 18:26 43.94751 20.83799 35022 ft 481 kts 148°
2026-04-25 18:27 43.89114 20.88785 35023 ft 481 kts 148°
2026-04-25 18:27 43.83475 20.93763 35022 ft 481 kts 148°
2026-04-25 18:28 43.77839 20.98729 35021 ft 480 kts 148°
2026-04-25 18:28 43.72197 21.03682 35025 ft 480 kts 148°
2026-04-25 18:29 43.63734 21.11078 35025 ft 480 kts 148°
2026-04-25 18:30 43.52466 21.20904 35032 ft 479 kts 148°
2026-04-25 18:30 43.46832 21.25798 35027 ft 478 kts 148°
2026-04-25 18:31 43.41202 21.30693 35032 ft 478 kts 148°
2026-04-25 18:31 43.35575 21.35571 35031 ft 478 kts 148°
2026-04-25 18:32 43.29948 21.40430 35034 ft 477 kts 148°
2026-04-25 18:32 43.24322 21.45269 35040 ft 477 kts 148°
2026-04-25 18:33 43.18697 21.50100 35040 ft 477 kts 148°
2026-04-25 18:33 43.13074 21.54927 35042 ft 477 kts 148°
2026-04-25 18:34 43.07451 21.59737 35035 ft 476 kts 148°
2026-04-25 18:34 43.01832 21.64529 35038 ft 476 kts 148°
2026-04-25 18:35 42.96216 21.69319 35042 ft 476 kts 148°
2026-04-25 18:35 42.90597 21.74097 35042 ft 476 kts 148°
2026-04-25 18:36 42.84981 21.78870 35037 ft 475 kts 147°
2026-04-25 18:36 42.79368 21.83627 35046 ft 475 kts 147°
2026-04-25 18:37 42.73754 21.88364 35039 ft 474 kts 147°
2026-04-25 18:37 42.68149 21.93093 35043 ft 474 kts 147°
2026-04-25 18:38 42.62537 21.97798 35042 ft 474 kts 147°
2026-04-25 18:38 42.56925 22.02509 35045 ft 474 kts 147°
2026-04-25 18:39 42.51316 22.07200 35052 ft 474 kts 148°
2026-04-25 18:39 42.45704 22.11887 35051 ft 474 kts 147°
2026-04-25 18:40 42.40101 22.16567 35053 ft 473 kts 147°
2026-04-25 18:40 42.34495 22.21228 35059 ft 473 kts 148°
2026-04-25 18:41 42.28471 22.24729 35057 ft 473 kts 165°
2026-04-25 18:41 42.22041 22.26349 35052 ft 473 kts 170°
2026-04-25 18:42 42.17699 22.27371 35050 ft 473 kts 169°
2026-04-25 18:42 42.09066 22.29412 35047 ft 473 kts 169°
2026-04-25 18:43 42.02583 22.30933 35039 ft 473 kts 169°
2026-04-25 18:43 41.96095 22.32450 35031 ft 473 kts 169°
2026-04-25 18:44 41.89614 22.33964 35029 ft 473 kts 169°
2026-04-25 18:44 41.83137 22.35479 35029 ft 473 kts 169°
2026-04-25 18:45 41.76655 22.36989 35027 ft 472 kts 169°
2026-04-25 18:45 41.70177 22.38486 35024 ft 473 kts 169°
2026-04-25 18:46 41.63698 22.39985 35019 ft 473 kts 169°
2026-04-25 18:46 41.57214 22.41486 35023 ft 473 kts 169°
2026-04-25 18:47 41.50738 22.42986 35023 ft 473 kts 169°
2026-04-25 18:47 41.44259 22.44489 35021 ft 473 kts 169°
2026-04-25 18:48 41.37779 22.45981 35032 ft 473 kts 168°
2026-04-25 18:48 41.32394 22.47215 35029 ft 472 kts 168°
2026-04-25 18:49 41.25914 22.48700 35027 ft 472 kts 168°
2026-04-25 18:49 41.19441 22.50184 35023 ft 472 kts 168°
2026-04-25 18:50 41.13044 22.52033 35024 ft 468 kts 158°
2026-04-25 18:50 41.07210 22.55742 35023 ft 464 kts 149°
2026-04-25 18:51 41.02442 22.59140 35017 ft 465 kts 149°
2026-04-25 18:51 40.95816 22.63830 35016 ft 465 kts 149°
2026-04-25 18:52 40.90116 22.67859 35020 ft 464 kts 148°
2026-04-25 18:52 40.84422 22.71891 35021 ft 464 kts 149°
2026-04-25 18:53 40.78732 22.75911 35019 ft 464 kts 149°
2026-04-25 18:53 40.73042 22.79929 35037 ft 464 kts 148°
2026-04-25 18:54 40.64507 22.85942 35048 ft 463 kts 148°
2026-04-25 18:55 40.58820 22.89923 35049 ft 463 kts 148°
2026-04-25 18:55 40.53130 22.93897 35048 ft 463 kts 148°
2026-04-25 18:56 40.47446 22.97872 35047 ft 463 kts 148°
2026-04-25 18:56 40.41512 23.01206 35044 ft 466 kts 156°
2026-04-25 18:57 40.35450 23.04220 35041 ft 466 kts 156°
2026-04-25 18:57 40.29388 23.07224 35041 ft 466 kts 156°
2026-04-25 18:58 40.23327 23.10227 35052 ft 466 kts 156°
2026-04-25 18:58 40.14232 23.14726 35054 ft 466 kts 156°
2026-04-25 18:59 40.02155 23.20696 35063 ft 466 kts 156°
2026-04-25 19:00 39.93066 23.25166 35068 ft 465 kts 156°
2026-04-25 19:01 39.83977 23.29616 35063 ft 465 kts 156°
2026-04-25 19:01 39.77924 23.32588 35075 ft 465 kts 156°
2026-04-25 19:02 39.68854 23.37023 35063 ft 464 kts 155°
2026-04-25 19:03 39.60804 23.40932 35062 ft 464 kts 156°
2026-04-25 19:03 39.53744 23.44364 35071 ft 464 kts 155°
2026-04-25 19:04 39.44688 23.48752 35064 ft 463 kts 156°
2026-04-25 19:05 39.32617 23.54590 35027 ft 463 kts 156°
2026-04-25 19:06 39.26581 23.57503 35022 ft 463 kts 156°
2026-04-25 19:06 39.17446 23.61563 35017 ft 466 kts 165°
2026-04-25 19:07 39.07746 23.63128 35028 ft 469 kts 170°
2026-04-25 19:08 38.98026 23.64553 35039 ft 469 kts 170°
2026-04-25 19:09 38.86164 23.66313 35068 ft 468 kts 170°
2026-04-25 19:10 38.75363 23.67892 35059 ft 468 kts 170°
2026-04-25 19:10 38.68903 23.68838 35055 ft 467 kts 170°
2026-04-25 19:11 38.62445 23.69786 35063 ft 467 kts 170°
2026-04-25 19:11 38.56024 23.70717 35058 ft 467 kts 170°
2026-04-25 19:12 38.49570 23.71659 35051 ft 467 kts 170°
2026-04-25 19:12 38.43116 23.72606 35046 ft 467 kts 170°
2026-04-25 19:13 38.36661 23.73550 35039 ft 467 kts 170°
2026-04-25 19:13 38.30209 23.74481 35031 ft 467 kts 170°
2026-04-25 19:14 38.23747 23.75407 35034 ft 467 kts 170°
2026-04-25 19:14 38.17443 23.77078 35028 ft 460 kts 155°
2026-04-25 19:15 38.11881 23.80891 34966 ft 452 kts 141°
2026-04-25 19:15 38.09294 23.83173 34058 ft 456 kts 141°
2026-04-25 19:15 38.06670 23.85486 32878 ft 461 kts 141°
2026-04-25 19:15 38.04025 23.87814 31791 ft 464 kts 141°
2026-04-25 19:16 38.01362 23.90151 30746 ft 466 kts 141°
2026-04-25 19:16 37.98687 23.92495 29643 ft 468 kts 141°
2026-04-25 19:16 37.95999 23.94846 28383 ft 471 kts 142°
2026-04-25 19:16 37.93292 23.97212 27047 ft 475 kts 143°
2026-04-25 19:17 37.90559 23.99601 25656 ft 480 kts 143°
2026-04-25 19:17 37.87798 24.02015 24283 ft 484 kts 143°
2026-04-25 19:17 37.85017 24.04443 23121 ft 484 kts 143°
2026-04-25 19:17 37.82271 24.06829 22235 ft 475 kts 143°
2026-04-25 19:18 37.79573 24.09173 21376 ft 467 kts 143°
2026-04-25 19:18 37.76955 24.11443 20284 ft 445 kts 143°
2026-04-25 19:18 37.74493 24.13574 19615 ft 414 kts 143°
2026-04-25 19:18 37.72120 24.15633 18911 ft 416 kts 142°
2026-04-25 19:19 37.69644 24.17584 17942 ft 424 kts 152°
2026-04-25 19:19 37.66808 24.18725 16759 ft 433 kts 168°
2026-04-25 19:19 37.63775 24.18813 15608 ft 442 kts 185°
2026-04-25 19:19 37.62753 24.18574 15336 ft 442 kts 192°
2026-04-25 19:20 37.58284 24.15688 14111 ft 435 kts 219°
2026-04-25 19:20 37.56308 24.12847 13209 ft 425 kts 236°
2026-04-25 19:20 37.55123 24.09603 12561 ft 393 kts 252°
2026-04-25 19:20 37.54651 24.06355 12151 ft 362 kts 265°
2026-04-25 19:21 37.54495 24.03325 11854 ft 332 kts 266°
2026-04-25 19:21 37.54241 23.97758 10534 ft 310 kts 265°
2026-04-25 19:21 37.54120 23.95090 10155 ft 303 kts 265°
2026-04-25 19:22 37.53996 23.92435 9934 ft 303 kts 265°
2026-04-25 19:22 37.53870 23.89785 9809 ft 303 kts 265°
2026-04-25 19:22 37.53615 23.84480 9545 ft 302 kts 265°
2026-04-25 19:23 37.53485 23.81834 9390 ft 304 kts 265°
2026-04-25 19:23 37.53819 23.76669 8840 ft 289 kts 298°
2026-04-25 19:23 37.55081 23.74826 8708 ft 271 kts 327°
2026-04-25 19:24 37.56764 23.73939 8359 ft 260 kts 353°
2026-04-25 19:24 37.58532 23.73776 7898 ft 258 kts 359°
2026-04-25 19:24 37.62083 23.73517 6817 ft 252 kts 358°
2026-04-25 19:25 37.65553 23.73250 5784 ft 247 kts 358°
2026-04-25 19:25 37.67256 23.73119 5377 ft 243 kts 358°
2026-04-25 19:25 37.68930 23.72992 4992 ft 239 kts 358°
2026-04-25 19:26 37.70579 23.72920 4596 ft 235 kts
2026-04-25 19:26 37.72157 23.73338 4216 ft 230 kts 20°
2026-04-25 19:26 37.73549 23.74279 3909 ft 223 kts 36°
2026-04-25 19:26 37.74744 23.75400 3858 ft 206 kts 36°
2026-04-25 19:27 37.75872 23.76465 3802 ft 200 kts 36°
2026-04-25 19:27 37.76248 23.76821 3779 ft 200 kts 36°
2026-04-25 19:27 37.78072 23.78545 3648 ft 189 kts 36°
2026-04-25 19:27 37.79074 23.79494 3497 ft 169 kts 36°
2026-04-25 19:28 37.79960 23.80332 3281 ft 150 kts 35°
2026-04-25 19:28 37.80764 23.81092 3100 ft 140 kts 35°
2026-04-25 19:28 37.81536 23.81821 2914 ft 138 kts 34°
2026-04-25 19:28 37.82298 23.82543 2741 ft 136 kts 35°
2026-04-25 19:29 37.83051 23.83255 2549 ft 135 kts 35°
2026-04-25 19:29 37.83802 23.83967 2382 ft 135 kts 35°
2026-04-25 19:29 37.84555 23.84680 2203 ft 135 kts 35°
2026-04-25 19:29 37.85302 23.85388 2013 ft 134 kts 35°
2026-04-25 19:30 37.86046 23.86093 1841 ft 133 kts 35°
2026-04-25 19:30 37.86790 23.86799 1654 ft 134 kts 35°
2026-04-25 19:30 37.87533 23.87503 1470 ft 133 kts 35°
2026-04-25 19:30 37.88271 23.88203 1295 ft 133 kts 36°
2026-04-25 19:31 37.89015 23.88909 1114 ft 135 kts 34°
2026-04-25 19:31 37.89769 23.89624 940 ft 136 kts 36°
2026-04-25 19:31 37.90521 23.90338 759 ft 135 kts 36°
2026-04-25 19:31 37.91281 23.91060 579 ft 138 kts 36°
2026-04-25 19:32 37.92050 23.91790 393 ft 139 kts 37°
2026-04-25 19:32 37.92800 23.92505 300 ft 126 kts 37°
2026-04-25 19:32 37.93192 23.92872 291 ft 87 kts 36°
2026-04-25 19:32 37.93452 23.93125 291 ft 56 kts 38°
2026-04-25 19:33 37.93621 23.93423 297 ft 25 kts 68°
2026-04-25 19:33 37.93664 23.93558 298 ft 12 kts 68°
2026-04-25 19:33 37.93669 23.93589 298 ft 0 kts 82°
2026-04-25 19:34 37.93660 23.93653 299 ft 13 kts 108°
2026-04-25 19:34 37.93692 23.93781 302 ft 17 kts 32°
2026-04-25 19:34 37.93786 23.93866 301 ft 18 kts 37°
2026-04-25 19:34 37.93890 23.93965 303 ft 20 kts 37°
2026-04-25 19:35 37.94007 23.94076 303 ft 22 kts 37°
2026-04-25 19:35 37.94126 23.94190 302 ft 19 kts 37°
2026-04-25 19:35 37.94238 23.94295 302 ft 21 kts 36°
2026-04-25 19:35 37.94363 23.94414 305 ft 24 kts 37°
2026-04-25 19:36 37.94481 23.94525 303 ft 22 kts 37°
2026-04-25 19:36 37.94601 23.94640 302 ft 15 kts 36°
2026-04-25 19:36 37.94607 23.94757 302 ft 16 kts 124°
2026-04-25 19:36 37.94535 23.94877 305 ft 18 kts 127°
2026-04-25 19:37 37.94455 23.95014 301 ft 21 kts 127°
2026-04-25 19:37 37.94392 23.95119 304 ft 15 kts 127°
2026-04-25 19:37 37.94323 23.95233 302 ft 17 kts 127°
2026-04-25 19:37 37.94246 23.95365 302 ft 18 kts 126°
2026-04-25 19:38 37.94171 23.95492 300 ft 17 kts 126°
2026-04-25 19:38 37.94100 23.95553 301 ft 14 kts 184°
2026-04-25 19:38 37.94016 23.95488 301 ft 15 kts 218°
2026-04-25 19:38 37.93929 23.95401 303 ft 16 kts 220°
2026-04-25 19:39 37.93871 23.95277 302 ft 17 kts 246°
2026-04-25 19:39 37.93806 23.95157 302 ft 14 kts 219°
2026-04-25 19:39 37.93768 23.95119 301 ft 1 kts 217°
2026-04-25 19:39 37.93761 23.95073 302 ft 10 kts 296°
2026-04-25 19:40 37.93779 23.95043 302 ft 0 kts 307°
2026-04-25 19:40 37.93783 23.95038 301 ft 0 kts 307°
2026-04-25 19:40 37.93793 23.95020 302 ft 4 kts 307°
2026-04-25 19:40 37.93794 23.95018 302 ft 0 kts 307°